WZZ90P SKBO-GOBD

Flight info

Callsign WZZ90P
Flight time 8h 6m
Altitude 39000
Route MAVDA UW20 AUC DCT MIQ UN669 ELJEZ/M077F390 DCT 2150N DCT 2340N DCT 22N036W DCT ERNEK/N0444F390 DCT EVKAS DCT BVT DCT MOGSA DCT PIVSA PIVSA1D
Aircraft A21N/M-SDE3FGHIRWY/LB1

Departure

Time 2026-04-25 12:32
Airport El Dorado International Airport (SKBO)

Arrival

Time 2026-04-25 20:38
Airport Blaise Diagne International Airport (GOBD)
Time Latitude Longitude Altitude Speed Heading
2026-04-25 11:40 4.69938 -74.14270 8373 ft 0 kts 37°
2026-04-25 12:04 4.69931 -74.14275 8377 ft 2 kts 37°
2026-04-25 12:04 4.69919 -74.14284 8376 ft 2 kts 37°
2026-04-25 12:04 4.69907 -74.14294 8375 ft 1 kts 37°
2026-04-25 12:04 4.69899 -74.14300 8373 ft 2 kts 15°
2026-04-25 12:05 4.69883 -74.14299 8373 ft 2 kts 334°
2026-04-25 12:05 4.69875 -74.14293 8373 ft 0 kts 309°
2026-04-25 12:05 4.69880 -74.14298 8373 ft 4 kts 312°
2026-04-25 12:05 4.69910 -74.14338 8373 ft 7 kts 307°
2026-04-25 12:06 4.69942 -74.14380 8373 ft 6 kts 307°
2026-04-25 12:06 4.69957 -74.14401 8373 ft 1 kts 307°
2026-04-25 12:06 4.69958 -74.14401 8373 ft 0 kts 307°
2026-04-25 12:09 4.69959 -74.14402 8373 ft 0 kts 307°
2026-04-25 12:09 4.69966 -74.14412 8373 ft 1 kts 307°
2026-04-25 12:10 4.69985 -74.14437 8373 ft 5 kts 307°
2026-04-25 12:10 4.70012 -74.14471 8373 ft 6 kts 307°
2026-04-25 12:10 4.70037 -74.14505 8372 ft 0 kts 307°
2026-04-25 12:20 4.70042 -74.14511 8372 ft 3 kts 307°
2026-04-25 12:20 4.70069 -74.14554 8372 ft 9 kts 288°
2026-04-25 12:20 4.70099 -74.14619 8370 ft 11 kts 316°
2026-04-25 12:21 4.70156 -74.14677 8369 ft 12 kts 287°
2026-04-25 12:21 4.70111 -74.14742 8369 ft 12 kts 216°
2026-04-25 12:21 4.70038 -74.14797 8369 ft 14 kts 217°
2026-04-25 12:21 4.69949 -74.14864 8368 ft 17 kts 217°
2026-04-25 12:22 4.69862 -74.14932 8366 ft 11 kts 230°
2026-04-25 12:22 4.69876 -74.15007 8367 ft 11 kts 306°
2026-04-25 12:22 4.69924 -74.15071 8367 ft 11 kts 307°
2026-04-25 12:22 4.69975 -74.15138 8368 ft 12 kts 307°
2026-04-25 12:23 4.70032 -74.15214 8369 ft 14 kts 307°
2026-04-25 12:23 4.70105 -74.15310 8369 ft 19 kts 307°
2026-04-25 12:23 4.70193 -74.15426 8368 ft 22 kts 307°
2026-04-25 12:23 4.70289 -74.15554 8367 ft 24 kts 307°
2026-04-25 12:24 4.70399 -74.15696 8364 ft 27 kts 307°
2026-04-25 12:24 4.70515 -74.15853 8361 ft 29 kts 307°
2026-04-25 12:24 4.70643 -74.16021 8358 ft 31 kts 307°
2026-04-25 12:24 4.70776 -74.16196 8355 ft 30 kts 307°
2026-04-25 12:25 4.70900 -74.16361 8354 ft 28 kts 307°
2026-04-25 12:25 4.71015 -74.16514 8354 ft 26 kts 307°
2026-04-25 12:25 4.71123 -74.16655 8354 ft 24 kts 307°
2026-04-25 12:25 4.71199 -74.16766 8354 ft 11 kts 280°
2026-04-25 12:26 4.71187 -74.16803 8354 ft 0 kts 224°
2026-04-25 12:27 4.71176 -74.16813 8354 ft 3 kts 223°
2026-04-25 12:27 4.71150 -74.16834 8354 ft 5 kts 217°
2026-04-25 12:27 4.71112 -74.16863 8354 ft 8 kts 217°
2026-04-25 12:27 4.71054 -74.16887 8354 ft 10 kts 177°
2026-04-25 12:28 4.71013 -74.16866 8354 ft 0 kts 127°
2026-04-25 12:30 4.71012 -74.16865 8354 ft 2 kts 127°
2026-04-25 12:31 4.70868 -74.16673 8351 ft 70 kts 127°
2026-04-25 12:31 4.70449 -74.16118 8356 ft 130 kts 128°
2026-04-25 12:31 4.69792 -74.15251 8373 ft 179 kts 125°
2026-04-25 12:31 4.69026 -74.14230 8829 ft 186 kts 126°
2026-04-25 12:32 4.68102 -74.13314 9413 ft 192 kts 152°
2026-04-25 12:32 4.66801 -74.13167 10019 ft 194 kts 198°
2026-04-25 12:32 4.65698 -74.13941 10414 ft 202 kts 236°
2026-04-25 12:32 4.65025 -74.15229 10772 ft 215 kts 242°
2026-04-25 12:33 4.64240 -74.16567 11096 ft 231 kts 239°
2026-04-25 12:33 4.63355 -74.17964 11449 ft 245 kts 238°
2026-04-25 12:33 4.62420 -74.19427 11959 ft 252 kts 238°
2026-04-25 12:33 4.61609 -74.21005 12396 ft 263 kts 250°
2026-04-25 12:34 4.61109 -74.22819 12712 ft 279 kts 259°
2026-04-25 12:34 4.60739 -74.24780 13021 ft 296 kts 261°
2026-04-25 12:34 4.60189 -74.26822 13309 ft 312 kts 246°
2026-04-25 12:34 4.59477 -74.28084 13637 ft 317 kts 235°
2026-04-25 12:35 4.57507 -74.30274 14448 ft 319 kts 226°
2026-04-25 12:35 4.55931 -74.31860 15026 ft 321 kts 226°
2026-04-25 12:35 4.54363 -74.33437 15559 ft 324 kts 227°
2026-04-25 12:35 4.52757 -74.35055 16082 ft 327 kts 225°
2026-04-25 12:36 4.51010 -74.36548 16384 ft 339 kts 218°
2026-04-25 12:36 4.49010 -74.37881 16721 ft 348 kts 211°
2026-04-25 12:36 4.46826 -74.38982 17227 ft 351 kts 204°
2026-04-25 12:36 4.44588 -74.39951 17721 ft 354 kts 206°
2026-04-25 12:37 4.42379 -74.41082 18139 ft 358 kts 210°
2026-04-25 12:37 4.40189 -74.42339 18544 ft 362 kts 211°
2026-04-25 12:37 4.38021 -74.43620 19003 ft 365 kts 212°
2026-04-25 12:37 4.35794 -74.44846 19438 ft 369 kts 202°
2026-04-25 12:38 4.33267 -74.45328 19816 ft 373 kts 179°
2026-04-25 12:38 4.30709 -74.44816 20261 ft 374 kts 157°
2026-04-25 12:38 4.28541 -74.43436 20707 ft 373 kts 135°
2026-04-25 12:38 4.27000 -74.41334 21201 ft 371 kts 114°
2026-04-25 12:39 4.26309 -74.38886 21676 ft 370 kts 99°
2026-04-25 12:39 4.25933 -74.36346 22119 ft 372 kts 97°
2026-04-25 12:39 4.25547 -74.33746 22362 ft 380 kts 99°
2026-04-25 12:39 4.25133 -74.31107 22669 ft 386 kts 99°
2026-04-25 12:40 4.24706 -74.28456 23095 ft 387 kts 100°
2026-04-25 12:40 4.24270 -74.25790 23569 ft 387 kts 100°
2026-04-25 12:40 4.23834 -74.23147 24060 ft 386 kts 100°
2026-04-25 12:40 4.23395 -74.20489 24431 ft 387 kts 100°
2026-04-25 12:41 4.22955 -74.17827 24527 ft 387 kts 100°
2026-04-25 12:41 4.22515 -74.15169 24529 ft 385 kts 100°
2026-04-25 12:41 4.22078 -74.12528 24518 ft 385 kts 100°
2026-04-25 12:41 4.21644 -74.09898 24504 ft 385 kts 100°
2026-04-25 12:42 4.21208 -74.07255 24493 ft 386 kts 100°
2026-04-25 12:42 4.20917 -74.05494 24491 ft 386 kts 100°
2026-04-25 12:42 4.20351 -74.01952 24488 ft 387 kts 97°
2026-04-25 12:42 4.20481 -73.99263 24474 ft 388 kts 77°
2026-04-25 12:43 4.21481 -73.96783 24476 ft 390 kts 59°
2026-04-25 12:43 4.23268 -73.94715 24475 ft 392 kts 40°
2026-04-25 12:43 4.28267 -73.92675 24481 ft 392 kts 11°
2026-04-25 12:44 4.30951 -73.92188 24468 ft 392 kts 11°
2026-04-25 12:44 4.33643 -73.91701 24467 ft 393 kts 11°
2026-04-25 12:44 4.39046 -73.90685 24475 ft 393 kts 11°
2026-04-25 12:45 4.41744 -73.90164 24476 ft 393 kts 11°
2026-04-25 12:45 4.44427 -73.89644 24480 ft 393 kts 11°
2026-04-25 12:45 4.49814 -73.88601 24476 ft 392 kts 11°
2026-04-25 12:46 4.52508 -73.88251 24470 ft 391 kts
2026-04-25 12:46 4.55261 -73.88317 24470 ft 391 kts 353°
2026-04-25 12:46 4.57961 -73.88772 24470 ft 391 kts 347°
2026-04-25 12:46 4.60625 -73.89371 24467 ft 392 kts 346°
2026-04-25 12:47 4.63265 -73.89969 24458 ft 392 kts 349°
2026-04-25 12:47 4.65988 -73.89970 24436 ft 391 kts 12°
2026-04-25 12:47 4.68489 -73.88866 24448 ft 392 kts 37°
2026-04-25 12:47 4.70365 -73.86949 24466 ft 392 kts 53°
2026-04-25 12:48 4.71954 -73.84710 24472 ft 391 kts 54°
2026-04-25 12:48 4.73535 -73.82492 24476 ft 390 kts 54°
2026-04-25 12:48 4.75144 -73.80281 24479 ft 390 kts 53°
2026-04-25 12:48 4.76752 -73.78108 24486 ft 390 kts 53°
2026-04-25 12:49 4.78387 -73.75920 24488 ft 390 kts 53°
2026-04-25 12:49 4.80011 -73.73764 24488 ft 390 kts 53°
2026-04-25 12:49 4.81667 -73.71574 24484 ft 393 kts 53°
2026-04-25 12:49 4.83318 -73.69397 24753 ft 397 kts 53°
2026-04-25 12:50 4.84990 -73.67196 25256 ft 396 kts 53°
2026-04-25 12:50 4.86662 -73.64996 25661 ft 397 kts 53°
2026-04-25 12:50 4.88345 -73.62781 26035 ft 400 kts 53°
2026-04-25 12:50 4.90033 -73.60558 26430 ft 401 kts 54°
2026-04-25 12:51 4.91719 -73.58340 26807 ft 403 kts 54°
2026-04-25 12:51 4.93422 -73.56100 27182 ft 405 kts 54°
2026-04-25 12:51 4.95127 -73.53853 27526 ft 406 kts 54°
2026-04-25 12:51 4.96860 -73.51572 27874 ft 409 kts 54°
2026-04-25 12:52 4.98595 -73.49288 28192 ft 412 kts 54°
2026-04-25 12:52 5.00314 -73.47021 28505 ft 414 kts 55°
2026-04-25 12:52 5.02070 -73.44708 28813 ft 417 kts 55°
2026-04-25 12:52 5.03830 -73.42387 29140 ft 420 kts 55°
2026-04-25 12:53 5.05599 -73.40054 29481 ft 422 kts 55°
2026-04-25 12:53 5.07392 -73.37693 29887 ft 423 kts 55°
2026-04-25 12:53 5.09168 -73.35356 30274 ft 423 kts 55°
2026-04-25 12:53 5.10936 -73.33025 30661 ft 424 kts 56°
2026-04-25 12:54 5.12745 -73.30643 31017 ft 426 kts 56°
2026-04-25 12:54 5.14529 -73.28291 31346 ft 428 kts 56°
2026-04-25 12:54 5.16330 -73.25914 31672 ft 430 kts 56°
2026-04-25 12:54 5.18155 -73.23505 31989 ft 432 kts 56°
2026-04-25 12:55 5.19980 -73.21101 32314 ft 434 kts 56°
2026-04-25 12:55 5.21189 -73.19509 32518 ft 435 kts 56°
2026-04-25 12:55 5.23627 -73.16295 32933 ft 437 kts 56°
2026-04-25 12:55 5.25471 -73.13861 33237 ft 440 kts 56°
2026-04-25 12:56 5.27334 -73.11403 33519 ft 442 kts 56°
2026-04-25 12:56 5.29213 -73.08925 33838 ft 444 kts 56°
2026-04-25 12:56 5.31073 -73.06471 34173 ft 445 kts 56°
2026-04-25 12:56 5.32945 -73.04006 34592 ft 444 kts 56°
2026-04-25 12:57 5.34817 -73.01536 35057 ft 442 kts 56°
2026-04-25 12:57 5.36656 -72.99109 35490 ft 441 kts 56°
2026-04-25 12:57 5.38520 -72.96648 35868 ft 440 kts 56°
2026-04-25 12:57 5.40369 -72.94207 36215 ft 440 kts 56°
2026-04-25 12:58 5.42230 -72.91749 36547 ft 440 kts 56°
2026-04-25 12:58 5.44063 -72.89328 36865 ft 440 kts 56°
2026-04-25 12:58 5.45912 -72.86885 37198 ft 439 kts 56°
2026-04-25 12:58 5.47774 -72.84425 37521 ft 439 kts 56°
2026-04-25 12:59 5.49613 -72.81996 37816 ft 438 kts 56°
2026-04-25 12:59 5.51460 -72.79556 38118 ft 437 kts 56°
2026-04-25 12:59 5.53295 -72.77132 38415 ft 436 kts 56°
2026-04-25 12:59 5.55125 -72.74712 38671 ft 436 kts 56°
2026-04-25 13:00 5.56958 -72.72292 38913 ft 436 kts 56°
2026-04-25 13:00 5.58163 -72.70698 39079 ft 435 kts 56°
2026-04-25 13:00 5.60616 -72.67452 39357 ft 436 kts 56°
2026-04-25 13:00 5.62451 -72.65025 39365 ft 437 kts 56°
2026-04-25 13:01 5.66127 -72.60165 39340 ft 437 kts 56°
2026-04-25 13:01 5.69792 -72.55320 39314 ft 437 kts 56°
2026-04-25 13:02 5.73474 -72.50450 39290 ft 437 kts 56°
2026-04-25 13:02 5.77149 -72.45589 39257 ft 437 kts 56°
2026-04-25 13:03 5.80816 -72.40731 39259 ft 437 kts 56°
2026-04-25 13:03 5.84477 -72.35887 39277 ft 437 kts 56°
2026-04-25 13:04 5.88162 -72.31008 39264 ft 436 kts 56°
2026-04-25 13:04 5.91813 -72.26172 39236 ft 436 kts 56°
2026-04-25 13:05 5.95482 -72.21310 39197 ft 436 kts 56°
2026-04-25 13:05 5.99146 -72.16456 39190 ft 437 kts 56°
2026-04-25 13:06 6.02833 -72.11568 39155 ft 436 kts 56°
2026-04-25 13:06 6.06482 -72.06730 39123 ft 436 kts 56°
2026-04-25 13:07 6.10157 -72.01857 39094 ft 436 kts 56°
2026-04-25 13:07 6.13807 -71.97015 39065 ft 436 kts 56°
2026-04-25 13:08 6.17231 -71.92473 39047 ft 436 kts 56°
2026-04-25 13:08 6.20897 -71.87606 39031 ft 437 kts 56°
2026-04-25 13:09 6.24582 -71.82711 39017 ft 438 kts 56°
2026-04-25 13:09 6.28232 -71.77866 39003 ft 438 kts 56°
2026-04-25 13:10 6.31909 -71.72983 38986 ft 438 kts 56°
2026-04-25 13:10 6.35607 -71.68070 38981 ft 438 kts 56°
2026-04-25 13:11 6.39271 -71.63200 38977 ft 439 kts 56°
2026-04-25 13:11 6.42957 -71.58297 38977 ft 440 kts 56°
2026-04-25 13:12 6.46631 -71.53413 38973 ft 441 kts 56°
2026-04-25 13:12 6.49733 -71.49288 38970 ft 441 kts 56°
2026-04-25 13:13 6.54049 -71.43546 38962 ft 441 kts 56°
2026-04-25 13:13 6.57733 -71.38643 38956 ft 441 kts 56°
2026-04-25 13:14 6.61427 -71.33724 38954 ft 442 kts 56°
2026-04-25 13:14 6.65156 -71.28758 38953 ft 443 kts 56°
2026-04-25 13:15 6.68863 -71.23825 38956 ft 443 kts 56°
2026-04-25 13:15 6.72569 -71.18886 38954 ft 443 kts 56°
2026-04-25 13:16 6.76268 -71.13957 38951 ft 443 kts 56°
2026-04-25 13:16 6.79973 -71.09014 38949 ft 442 kts 56°
2026-04-25 13:17 6.83692 -71.04057 38948 ft 443 kts 56°
2026-04-25 13:17 6.87407 -70.99100 38946 ft 443 kts 56°
2026-04-25 13:18 6.91086 -70.94191 38945 ft 442 kts 56°
2026-04-25 13:18 6.94808 -70.89217 38946 ft 443 kts 56°
2026-04-25 13:19 6.98511 -70.84271 38945 ft 443 kts 56°
2026-04-25 13:19 7.01593 -70.80152 38945 ft 443 kts 56°
2026-04-25 13:20 7.05964 -70.74374 38944 ft 444 kts 53°
2026-04-25 13:20 7.10117 -70.69745 38944 ft 447 kts 49°
2026-04-25 13:21 7.14455 -70.65234 38943 ft 447 kts 49°
2026-04-25 13:21 7.18768 -70.60751 38944 ft 448 kts 49°
2026-04-25 13:22 7.23095 -70.56245 38942 ft 447 kts 49°
2026-04-25 13:23 7.29573 -70.49488 38941 ft 448 kts 49°
2026-04-25 13:23 7.33889 -70.44984 38936 ft 448 kts 49°
2026-04-25 13:24 7.38235 -70.40446 38932 ft 448 kts 49°
2026-04-25 13:24 7.42583 -70.35905 38931 ft 449 kts 49°
2026-04-25 13:25 7.46908 -70.31383 38930 ft 449 kts 49°
2026-04-25 13:25 7.51252 -70.26842 38929 ft 450 kts 49°
2026-04-25 13:26 7.55601 -70.22295 38928 ft 450 kts 49°
2026-04-25 13:26 7.59922 -70.17776 38927 ft 449 kts 49°
2026-04-25 13:27 7.64270 -70.13229 38926 ft 449 kts 49°
2026-04-25 13:27 7.68617 -70.08679 38926 ft 449 kts 49°
2026-04-25 13:28 7.72954 -70.04140 38924 ft 450 kts 49°
2026-04-25 13:28 7.77270 -69.99621 38922 ft 450 kts 49°
2026-04-25 13:29 7.81624 -69.95061 38923 ft 451 kts 49°
2026-04-25 13:29 7.85976 -69.90498 38922 ft 451 kts 49°
2026-04-25 13:30 7.92498 -69.83661 38923 ft 451 kts 49°
2026-04-25 13:31 7.99029 -69.76813 38923 ft 451 kts 49°
2026-04-25 13:31 8.03379 -69.72250 38920 ft 452 kts 49°
2026-04-25 13:32 8.07735 -69.67677 38918 ft 453 kts 49°
2026-04-25 13:32 8.12101 -69.63094 38918 ft 454 kts 49°
2026-04-25 13:33 8.16492 -69.58481 38919 ft 454 kts 49°
2026-04-25 13:33 8.20848 -69.53904 38916 ft 454 kts 49°
2026-04-25 13:34 8.25227 -69.49303 38915 ft 454 kts 49°
2026-04-25 13:34 8.29614 -69.44688 38918 ft 454 kts 49°
2026-04-25 13:35 8.33983 -69.40095 38916 ft 454 kts 49°
2026-04-25 13:35 8.38355 -69.35495 38919 ft 455 kts 49°
2026-04-25 13:36 8.42752 -69.30868 38917 ft 455 kts 49°
2026-04-25 13:36 8.47117 -69.26273 38921 ft 456 kts 49°
2026-04-25 13:37 8.51521 -69.21634 38919 ft 457 kts 49°
2026-04-25 13:37 8.55918 -69.17003 38923 ft 456 kts 49°
2026-04-25 13:38 8.60316 -69.12368 38925 ft 456 kts 49°
2026-04-25 13:38 8.64691 -69.07755 38925 ft 456 kts 49°
2026-04-25 13:39 8.69081 -69.03127 38924 ft 456 kts 49°
2026-04-25 13:39 8.73493 -68.98470 38922 ft 456 kts 49°
2026-04-25 13:40 8.77883 -68.93835 38921 ft 457 kts 49°
2026-04-25 13:40 8.82266 -68.89210 38921 ft 457 kts 49°
2026-04-25 13:41 8.86677 -68.84549 38922 ft 458 kts 48°
2026-04-25 13:41 8.91077 -68.79902 38922 ft 459 kts 48°
2026-04-25 13:42 8.95493 -68.75234 38922 ft 459 kts 48°
2026-04-25 13:42 8.99917 -68.70557 38923 ft 460 kts 49°
2026-04-25 13:43 9.04333 -68.65887 38923 ft 460 kts 49°
2026-04-25 13:43 9.08751 -68.61210 38922 ft 460 kts 49°
2026-04-25 13:44 9.13175 -68.56525 38923 ft 461 kts 49°
2026-04-25 13:44 9.17609 -68.51828 38925 ft 462 kts 48°
2026-04-25 13:45 9.22030 -68.47144 38927 ft 462 kts 48°
2026-04-25 13:45 9.26500 -68.42409 38930 ft 463 kts 48°
2026-04-25 13:46 9.30932 -68.37712 38931 ft 463 kts 48°
2026-04-25 13:46 9.35382 -68.32993 38935 ft 463 kts 49°
2026-04-25 13:47 9.39818 -68.28284 38942 ft 464 kts 48°
2026-04-25 13:47 9.44275 -68.23551 38946 ft 464 kts 48°
2026-04-25 13:48 9.48729 -68.18821 38950 ft 464 kts 48°
2026-04-25 13:48 9.53201 -68.14071 38951 ft 465 kts 48°
2026-04-25 13:49 9.57685 -68.09303 38952 ft 466 kts 48°
2026-04-25 13:49 9.62165 -68.04543 38951 ft 466 kts 48°
2026-04-25 13:50 9.66615 -67.99809 38958 ft 467 kts 48°
2026-04-25 13:50 9.71117 -67.95019 38966 ft 467 kts 48°
2026-04-25 13:51 9.75588 -67.90261 38973 ft 468 kts 48°
2026-04-25 13:51 9.80076 -67.85484 38991 ft 468 kts 48°
2026-04-25 13:52 9.84580 -67.80683 39005 ft 467 kts 48°
2026-04-25 13:52 9.89057 -67.75911 39021 ft 468 kts 48°
2026-04-25 13:53 9.93533 -67.71137 39034 ft 469 kts 48°
2026-04-25 13:53 9.98061 -67.66307 39043 ft 470 kts 48°
2026-04-25 13:54 10.02555 -67.61512 39043 ft 469 kts 48°
2026-04-25 13:54 10.07056 -67.56705 39035 ft 470 kts 48°
2026-04-25 13:55 10.11538 -67.51917 39028 ft 469 kts 48°
2026-04-25 13:55 10.16046 -67.47101 39025 ft 470 kts 48°
2026-04-25 13:56 10.20563 -67.42271 39024 ft 470 kts 48°
2026-04-25 13:56 10.25046 -67.37476 39025 ft 470 kts 48°
2026-04-25 13:57 10.29553 -67.32650 39023 ft 470 kts 48°
2026-04-25 13:57 10.34067 -67.27816 39019 ft 470 kts 48°
2026-04-25 13:58 10.38567 -67.22996 39014 ft 470 kts 48°
2026-04-25 13:58 10.43066 -67.18174 39011 ft 470 kts 48°
2026-04-25 13:59 10.47555 -67.13357 39016 ft 470 kts 48°
2026-04-25 13:59 10.52050 -67.08534 39024 ft 471 kts 48°
2026-04-25 14:00 10.56562 -67.03689 39018 ft 470 kts 48°
2026-04-25 14:00 10.60941 -66.98717 39000 ft 471 kts 53°
2026-04-25 14:01 10.64751 -66.93347 38985 ft 470 kts 58°
2026-04-25 14:01 10.68393 -66.87841 38966 ft 470 kts 58°
2026-04-25 14:02 10.72039 -66.82327 38948 ft 470 kts 58°
2026-04-25 14:02 10.75698 -66.76808 38928 ft 471 kts 58°
2026-04-25 14:03 10.79341 -66.71317 38921 ft 470 kts 58°
2026-04-25 14:03 10.83002 -66.65798 38920 ft 470 kts 58°
2026-04-25 14:04 10.86653 -66.60291 38918 ft 470 kts 58°
2026-04-25 14:04 10.90300 -66.54788 38915 ft 471 kts 58°
2026-04-25 14:05 10.93970 -66.49246 38912 ft 471 kts 58°
2026-04-25 14:05 10.97607 -66.43747 38913 ft 471 kts 58°
2026-04-25 14:06 11.01276 -66.38196 38912 ft 471 kts 58°
2026-04-25 14:06 11.04969 -66.32690 38913 ft 471 kts 57°
2026-04-25 14:07 11.08720 -66.27200 38915 ft 472 kts 57°
2026-04-25 14:07 11.12454 -66.21722 38912 ft 472 kts 58°
2026-04-25 14:08 11.16180 -66.16239 38912 ft 472 kts 57°
2026-04-25 14:08 11.19918 -66.10735 38912 ft 473 kts 58°
2026-04-25 14:09 11.23659 -66.05220 38911 ft 473 kts 58°
2026-04-25 14:09 11.27388 -65.99721 38911 ft 473 kts 58°
2026-04-25 14:10 11.31129 -65.94197 38911 ft 473 kts 58°
2026-04-25 14:10 11.34860 -65.88688 38911 ft 472 kts 58°
2026-04-25 14:11 11.38562 -65.83215 38912 ft 472 kts 58°
2026-04-25 14:11 11.42296 -65.77694 38911 ft 472 kts 57°
2026-04-25 14:12 11.46014 -65.72201 38912 ft 473 kts 57°
2026-04-25 14:12 11.49762 -65.66660 38912 ft 473 kts 57°
2026-04-25 14:13 11.53490 -65.61137 38912 ft 472 kts 57°
2026-04-25 14:13 11.57207 -65.55628 38913 ft 472 kts 58°
2026-04-25 14:14 11.60913 -65.50129 38913 ft 471 kts 58°
2026-04-25 14:14 11.64616 -65.44630 38918 ft 471 kts 58°
2026-04-25 14:15 11.68318 -65.39146 38922 ft 471 kts 57°
2026-04-25 14:15 11.72100 -65.33685 38925 ft 471 kts 57°
2026-04-25 14:16 11.75903 -65.28206 38928 ft 472 kts 57°
2026-04-25 14:16 11.79665 -65.22769 38930 ft 473 kts 57°
2026-04-25 14:17 11.83469 -65.17262 38931 ft 473 kts 57°
2026-04-25 14:17 11.87244 -65.11792 38932 ft 473 kts 57°
2026-04-25 14:18 11.91024 -65.06310 38932 ft 473 kts 57°
2026-04-25 14:18 11.94820 -65.00804 38931 ft 472 kts 57°
2026-04-25 14:19 11.98580 -64.95346 38931 ft 471 kts 57°
2026-04-25 14:19 12.02347 -64.89873 38932 ft 473 kts 57°
2026-04-25 14:20 12.06128 -64.84377 38931 ft 474 kts 57°
2026-04-25 14:20 12.09926 -64.78853 38931 ft 474 kts 57°
2026-04-25 14:21 12.13715 -64.73340 38931 ft 474 kts 57°
2026-04-25 14:21 12.17489 -64.67844 38931 ft 475 kts 57°
2026-04-25 14:22 12.21288 -64.62309 38931 ft 475 kts 57°
2026-04-25 14:22 12.25073 -64.56792 38931 ft 474 kts 57°
2026-04-25 14:23 12.28837 -64.51299 38930 ft 474 kts 57°
2026-04-25 14:23 12.32636 -64.45750 38930 ft 475 kts 57°
2026-04-25 14:24 12.36396 -64.40255 38931 ft 475 kts 57°
2026-04-25 14:24 12.40155 -64.34703 38930 ft 476 kts 57°
2026-04-25 14:25 12.43914 -64.29131 38930 ft 476 kts 57°
2026-04-25 14:25 12.47671 -64.23556 38927 ft 476 kts 57°
2026-04-25 14:26 12.51440 -64.17963 38924 ft 476 kts 57°
2026-04-25 14:26 12.55176 -64.12416 38923 ft 476 kts 57°
2026-04-25 14:27 12.58929 -64.06840 38922 ft 475 kts 57°
2026-04-25 14:27 12.62684 -64.01256 38921 ft 475 kts 57°
2026-04-25 14:28 12.66425 -63.95689 38924 ft 476 kts 57°
2026-04-25 14:28 12.70174 -63.90107 38924 ft 476 kts 57°
2026-04-25 14:29 12.73919 -63.84525 38921 ft 476 kts 57°
2026-04-25 14:29 12.77649 -63.78960 38926 ft 476 kts 57°
2026-04-25 14:30 12.81397 -63.73369 38927 ft 476 kts 57°
2026-04-25 14:30 12.87067 -63.65030 38925 ft 477 kts 53°
2026-04-25 14:31 12.91256 -63.59743 38923 ft 477 kts 51°
2026-04-25 14:31 12.95478 -63.54516 38929 ft 477 kts 51°
2026-04-25 14:32 12.99694 -63.49283 38926 ft 477 kts 51°
2026-04-25 14:32 13.03923 -63.44018 38929 ft 477 kts 51°
2026-04-25 14:33 13.08120 -63.38783 38932 ft 477 kts 51°
2026-04-25 14:33 13.12347 -63.33509 38937 ft 478 kts 51°
2026-04-25 14:34 13.16558 -63.28254 38944 ft 479 kts 51°
2026-04-25 14:34 13.20785 -63.22974 38945 ft 478 kts 51°
2026-04-25 14:35 13.25001 -63.17704 38960 ft 478 kts 51°
2026-04-25 14:35 13.29232 -63.12413 38967 ft 479 kts 51°
2026-04-25 14:36 13.33421 -63.07169 38951 ft 478 kts 51°
2026-04-25 14:36 13.37663 -63.01857 38952 ft 479 kts 51°
2026-04-25 14:37 13.41882 -62.96571 38948 ft 480 kts 51°
2026-04-25 14:37 13.46138 -62.91233 38943 ft 488 kts 51°
2026-04-25 14:38 13.50448 -62.85829 38944 ft 490 kts 51°
2026-04-25 14:38 13.54760 -62.80417 38944 ft 490 kts 51°
2026-04-25 14:39 13.59072 -62.75001 38947 ft 490 kts 51°
2026-04-25 14:39 13.63382 -62.69583 38952 ft 491 kts 51°
2026-04-25 14:40 13.67704 -62.64147 38947 ft 490 kts 51°
2026-04-25 14:40 13.72026 -62.58707 38947 ft 491 kts 51°
2026-04-25 14:41 13.76322 -62.53297 38949 ft 491 kts 51°
2026-04-25 14:41 13.80640 -62.47854 38951 ft 492 kts 51°
2026-04-25 14:42 13.84252 -62.43300 38958 ft 492 kts 51°
2026-04-25 14:42 13.89274 -62.36963 38952 ft 492 kts 51°
2026-04-25 14:43 13.93603 -62.31499 38954 ft 491 kts 51°
2026-04-25 14:43 13.97931 -62.26031 38952 ft 491 kts 51°
2026-04-25 14:44 14.02221 -62.20605 38953 ft 492 kts 51°
2026-04-25 14:44 14.06548 -62.15130 38952 ft 493 kts 51°
2026-04-25 14:45 14.10873 -62.09656 38953 ft 492 kts 51°
2026-04-25 14:45 14.15176 -62.04206 38951 ft 492 kts 51°
2026-04-25 14:46 14.19507 -61.98715 38946 ft 492 kts 51°
2026-04-25 14:46 14.23812 -61.93254 38953 ft 492 kts 51°
2026-04-25 14:47 14.27402 -61.88696 38950 ft 492 kts 51°
2026-04-25 14:47 14.32441 -61.82296 38949 ft 493 kts 51°
2026-04-25 14:48 14.36755 -61.76811 38946 ft 493 kts 51°
2026-04-25 14:48 14.41064 -61.71330 38943 ft 494 kts 51°
2026-04-25 14:49 14.45400 -61.65812 38946 ft 494 kts 51°
2026-04-25 14:49 14.49715 -61.60316 38943 ft 494 kts 51°
2026-04-25 14:50 14.54019 -61.54831 38944 ft 494 kts 51°
2026-04-25 14:50 14.58350 -61.49305 38944 ft 494 kts 51°
2026-04-25 14:51 14.62643 -61.43824 38947 ft 494 kts 51°
2026-04-25 14:51 14.66978 -61.38285 38946 ft 494 kts 51°
2026-04-25 14:52 14.71271 -61.32799 38945 ft 494 kts 51°
2026-04-25 14:52 14.74884 -61.28175 38946 ft 494 kts 51°
2026-04-25 14:53 14.79898 -61.21755 38947 ft 494 kts 51°
2026-04-25 14:53 14.84224 -61.16210 38950 ft 495 kts 51°
2026-04-25 14:54 14.88547 -61.10667 38952 ft 496 kts 51°
2026-04-25 14:54 14.92875 -61.05129 38952 ft 494 kts 51°
2026-04-25 14:55 14.97162 -60.99632 38954 ft 494 kts 51°
2026-04-25 14:55 15.01479 -60.94088 38953 ft 495 kts 51°
2026-04-25 14:56 15.05781 -60.88557 38953 ft 495 kts 51°
2026-04-25 14:56 15.10105 -60.82993 38954 ft 495 kts 51°
2026-04-25 14:57 15.14403 -60.77462 38955 ft 495 kts 51°
2026-04-25 14:57 15.18727 -60.71892 38955 ft 497 kts 51°
2026-04-25 14:58 15.23041 -60.66331 38962 ft 497 kts 51°
2026-04-25 14:58 15.27377 -60.60734 38970 ft 498 kts 51°
2026-04-25 14:59 15.31706 -60.55146 38976 ft 497 kts 51°
2026-04-25 14:59 15.36009 -60.49585 38976 ft 496 kts 51°
2026-04-25 15:00 15.40343 -60.43981 38976 ft 496 kts 51°
2026-04-25 15:00 15.44635 -60.38428 38976 ft 495 kts 51°
2026-04-25 15:01 15.48949 -60.32841 38974 ft 496 kts 51°
2026-04-25 15:01 15.53252 -60.27265 38975 ft 495 kts 51°
2026-04-25 15:02 15.57529 -60.21719 38974 ft 496 kts 51°
2026-04-25 15:02 15.61854 -60.16105 38975 ft 497 kts 51°
2026-04-25 15:03 15.66146 -60.10531 38974 ft 498 kts 51°
2026-04-25 15:03 15.70471 -60.04909 38974 ft 498 kts 51°
2026-04-25 15:04 15.74790 -59.99291 38974 ft 498 kts 51°
2026-04-25 15:04 15.79117 -59.93657 38975 ft 498 kts 51°
2026-04-25 15:05 15.83417 -59.88054 38973 ft 498 kts 51°
2026-04-25 15:06 15.89898 -59.79602 38976 ft 498 kts 51°
2026-04-25 15:06 15.94194 -59.73992 38973 ft 498 kts 51°
2026-04-25 15:07 15.98504 -59.68361 38973 ft 498 kts 51°
2026-04-25 15:07 16.02798 -59.62749 38971 ft 498 kts 51°
2026-04-25 15:08 16.07105 -59.57113 38972 ft 498 kts 51°
2026-04-25 15:08 16.11416 -59.51460 38970 ft 499 kts 51°
2026-04-25 15:09 16.15742 -59.45787 38971 ft 500 kts 51°
2026-04-25 15:09 16.22228 -59.37295 38971 ft 501 kts 51°
2026-04-25 15:10 16.26545 -59.31634 38971 ft 501 kts 52°
2026-04-25 15:11 16.33040 -59.23101 38972 ft 501 kts 51°
2026-04-25 15:11 16.37352 -59.17430 38972 ft 502 kts 51°
2026-04-25 15:12 16.43850 -59.08876 38972 ft 502 kts 52°
2026-04-25 15:12 16.47455 -59.04127 38971 ft 502 kts 51°
2026-04-25 15:13 16.54662 -58.94619 38977 ft 504 kts 52°
2026-04-25 15:14 16.58998 -58.88892 38982 ft 504 kts 52°
2026-04-25 15:14 16.63336 -58.83157 38985 ft 503 kts 51°
2026-04-25 15:15 16.67656 -58.77441 38987 ft 503 kts 51°
2026-04-25 15:15 16.71991 -58.71703 38987 ft 503 kts 51°
2026-04-25 15:16 16.76325 -58.65960 38988 ft 504 kts 51°
2026-04-25 15:16 16.82814 -58.57356 38990 ft 504 kts 51°
2026-04-25 15:17 16.89304 -58.48736 38991 ft 505 kts 51°
2026-04-25 15:18 16.93627 -58.42988 38992 ft 505 kts 51°
2026-04-25 15:18 17.00129 -58.34340 38991 ft 505 kts 52°
2026-04-25 15:19 17.03723 -58.29552 38994 ft 505 kts 52°
2026-04-25 15:19 17.08785 -58.22802 38995 ft 505 kts 52°
2026-04-25 15:20 17.13106 -58.17037 38997 ft 506 kts 52°
2026-04-25 15:20 17.17461 -58.11219 38995 ft 506 kts 52°
2026-04-25 15:21 17.21797 -58.05421 38996 ft 507 kts 52°
2026-04-25 15:21 17.26135 -57.99622 38995 ft 507 kts 52°
2026-04-25 15:22 17.30465 -57.93821 38997 ft 507 kts 52°
2026-04-25 15:22 17.34796 -57.88018 38996 ft 507 kts 52°
2026-04-25 15:23 17.39144 -57.82185 38997 ft 508 kts 51°
2026-04-25 15:23 17.43479 -57.76366 38993 ft 507 kts 51°
2026-04-25 15:24 17.47803 -57.70553 38994 ft 508 kts 51°
2026-04-25 15:24 17.51398 -57.65719 38995 ft 507 kts 51°
2026-04-25 15:25 17.56445 -57.58924 38997 ft 507 kts 51°
2026-04-25 15:25 17.60790 -57.53063 38994 ft 508 kts 51°
2026-04-25 15:26 17.65113 -57.47236 38998 ft 508 kts 51°
2026-04-25 15:26 17.69440 -57.41405 39003 ft 508 kts 51°
2026-04-25 15:27 17.73782 -57.35545 39003 ft 508 kts 51°
2026-04-25 15:28 17.80275 -57.26765 39003 ft 509 kts 51°
2026-04-25 15:28 17.84590 -57.20921 39003 ft 509 kts 51°
2026-04-25 15:29 17.88913 -57.15056 39006 ft 509 kts 51°
2026-04-25 15:29 17.93239 -57.09183 39000 ft 509 kts 52°
2026-04-25 15:30 17.97552 -57.03260 38993 ft 510 kts 53°
2026-04-25 15:30 18.01322 -56.97017 38992 ft 511 kts 61°
2026-04-25 15:31 18.04481 -56.90321 38989 ft 510 kts 65°
2026-04-25 15:31 18.07493 -56.83612 38993 ft 511 kts 65°
2026-04-25 15:32 18.10524 -56.76883 38991 ft 510 kts 65°
2026-04-25 15:32 18.13574 -56.70143 38994 ft 510 kts 65°
2026-04-25 15:33 18.18135 -56.60070 38991 ft 510 kts 65°
2026-04-25 15:33 18.21182 -56.53332 38994 ft 509 kts 65°
2026-04-25 15:34 18.24206 -56.46634 38992 ft 510 kts 65°
2026-04-25 15:34 18.26734 -56.41031 38989 ft 510 kts 65°
2026-04-25 15:35 18.31812 -56.29763 38993 ft 511 kts 65°
2026-04-25 15:36 18.36353 -56.19667 38991 ft 512 kts 65°
2026-04-25 15:36 18.39402 -56.12878 38994 ft 511 kts 65°
2026-04-25 15:37 18.42423 -56.06144 38992 ft 511 kts 65°
2026-04-25 15:37 18.45455 -55.99377 38992 ft 511 kts 65°
2026-04-25 15:38 18.48476 -55.92629 38992 ft 511 kts 65°
2026-04-25 15:38 18.51512 -55.85836 38995 ft 511 kts 64°
2026-04-25 15:39 18.54525 -55.79091 38994 ft 511 kts 64°
2026-04-25 15:39 18.57539 -55.72338 38995 ft 511 kts 65°
2026-04-25 15:40 18.60060 -55.66677 38996 ft 512 kts 64°
2026-04-25 15:40 18.63585 -55.58756 38992 ft 512 kts 64°
2026-04-25 15:41 18.66600 -55.51971 38993 ft 512 kts 64°
2026-04-25 15:41 18.69614 -55.45186 38993 ft 513 kts 64°
2026-04-25 15:42 18.72554 -55.38383 38995 ft 512 kts 68°
2026-04-25 15:42 18.74751 -55.31240 38996 ft 511 kts 75°
2026-04-25 15:43 18.77081 -55.24157 38992 ft 511 kts 67°
2026-04-25 15:43 18.80019 -55.17365 38996 ft 511 kts 64°
2026-04-25 15:44 18.83047 -55.10580 38998 ft 511 kts 64°
2026-04-25 15:44 18.86043 -55.03822 39007 ft 511 kts 64°
2026-04-25 15:45 18.89052 -54.97003 39007 ft 511 kts 65°
2026-04-25 15:45 18.91546 -54.91336 39013 ft 511 kts 65°
2026-04-25 15:46 18.95021 -54.83429 39008 ft 511 kts 65°
2026-04-25 15:46 18.98007 -54.76624 39011 ft 511 kts 65°
2026-04-25 15:47 19.00988 -54.69823 39013 ft 513 kts 65°
2026-04-25 15:47 19.03983 -54.62980 39010 ft 513 kts 65°
2026-04-25 15:48 19.06966 -54.56156 39011 ft 513 kts 64°
2026-04-25 15:48 19.09938 -54.49353 39012 ft 512 kts 64°
2026-04-25 15:49 19.12928 -54.42495 39012 ft 513 kts 64°
2026-04-25 15:49 19.15906 -54.35664 39012 ft 513 kts 64°
2026-04-25 15:50 19.18886 -54.28814 39009 ft 513 kts 65°
2026-04-25 15:50 19.21850 -54.21994 39012 ft 513 kts 65°
2026-04-25 15:51 19.24334 -54.16272 39012 ft 513 kts 65°
2026-04-25 15:51 19.27795 -54.08291 39011 ft 513 kts 65°
2026-04-25 15:52 19.30763 -54.01437 39013 ft 514 kts 65°
2026-04-25 15:52 19.33720 -53.94600 39017 ft 514 kts 65°
2026-04-25 15:53 19.36697 -53.87712 39013 ft 514 kts 65°
2026-04-25 15:53 19.39661 -53.80843 39016 ft 514 kts 65°
2026-04-25 15:54 19.42615 -53.73985 39019 ft 514 kts 65°
2026-04-25 15:54 19.45571 -53.67115 39015 ft 513 kts 65°
2026-04-25 15:55 19.48526 -53.60241 39014 ft 514 kts 65°
2026-04-25 15:55 19.51479 -53.53364 39017 ft 514 kts 65°
2026-04-25 15:56 19.54441 -53.46455 39014 ft 514 kts 65°
2026-04-25 15:56 19.57383 -53.39585 39015 ft 515 kts 65°
2026-04-25 15:57 19.60333 -53.32690 39013 ft 515 kts 65°
2026-04-25 15:57 19.63291 -53.25762 39015 ft 515 kts 65°
2026-04-25 15:58 19.66218 -53.18903 39016 ft 515 kts 65°
2026-04-25 15:58 19.69168 -53.11979 39014 ft 516 kts 65°
2026-04-25 15:59 19.72110 -53.05064 39013 ft 516 kts 65°
2026-04-25 15:59 19.75060 -52.98123 39014 ft 516 kts 65°
2026-04-25 16:00 19.77513 -52.92346 39016 ft 516 kts 65°
2026-04-25 16:00 19.80939 -52.84262 39016 ft 516 kts 65°
2026-04-25 16:01 19.83876 -52.77325 39015 ft 515 kts 65°
2026-04-25 16:01 19.86796 -52.70421 39016 ft 515 kts 65°
2026-04-25 16:02 19.89732 -52.63468 39014 ft 515 kts 65°
2026-04-25 16:02 19.92653 -52.56545 39015 ft 515 kts 65°
2026-04-25 16:03 19.95559 -52.49644 39017 ft 515 kts 65°
2026-04-25 16:03 19.98496 -52.42660 39015 ft 516 kts 65°
2026-04-25 16:04 20.01408 -52.35731 39015 ft 517 kts 65°
2026-04-25 16:04 20.04331 -52.28766 39013 ft 517 kts 65°
2026-04-25 16:05 20.07239 -52.21826 39014 ft 517 kts 65°
2026-04-25 16:06 20.11620 -52.11350 39013 ft 517 kts 65°
2026-04-25 16:06 20.14530 -52.04383 39014 ft 517 kts 65°
2026-04-25 16:07 20.17443 -51.97395 39014 ft 516 kts 65°
2026-04-25 16:07 20.20337 -51.90451 39016 ft 516 kts 65°
2026-04-25 16:08 20.23245 -51.83464 39019 ft 515 kts 65°
2026-04-25 16:08 20.26133 -51.76512 39021 ft 516 kts 65°
2026-04-25 16:09 20.29039 -51.69507 39023 ft 516 kts 65°
2026-04-25 16:09 20.31925 -51.62542 39029 ft 517 kts 65°
2026-04-25 16:10 20.34813 -51.55561 39034 ft 517 kts 65°
2026-04-25 16:10 20.37713 -51.48545 39034 ft 517 kts 65°
2026-04-25 16:11 20.40587 -51.41577 39034 ft 517 kts 65°
2026-04-25 16:11 20.43491 -51.34537 39034 ft 517 kts 65°
2026-04-25 16:12 20.46364 -51.27558 39034 ft 517 kts 65°
2026-04-25 16:12 20.49245 -51.20546 39035 ft 517 kts 65°
2026-04-25 16:13 20.52124 -51.13526 39034 ft 518 kts 65°
2026-04-25 16:13 20.54998 -51.06517 39034 ft 518 kts 65°
2026-04-25 16:14 20.57878 -50.99480 39034 ft 518 kts 65°
2026-04-25 16:14 20.60746 -50.92471 39034 ft 517 kts 65°
2026-04-25 16:15 20.63611 -50.85451 39034 ft 517 kts 65°
2026-04-25 16:15 20.66490 -50.78390 39034 ft 518 kts 65°
2026-04-25 16:16 20.69354 -50.71354 39034 ft 518 kts 65°
2026-04-25 16:16 20.72207 -50.64337 39034 ft 518 kts 65°
2026-04-25 16:17 20.75063 -50.57297 39034 ft 519 kts 65°
2026-04-25 16:17 20.77931 -50.50225 39034 ft 519 kts 65°
2026-04-25 16:18 20.80798 -50.43145 39034 ft 519 kts 65°
2026-04-25 16:18 20.83651 -50.36090 39034 ft 520 kts 65°
2026-04-25 16:19 20.86511 -50.29006 39033 ft 520 kts 65°
2026-04-25 16:19 20.89370 -50.21908 39034 ft 521 kts 65°
2026-04-25 16:20 20.93649 -50.11268 39034 ft 520 kts 65°
2026-04-25 16:21 20.97838 -50.00598 39033 ft 522 kts 68°
2026-04-25 16:21 20.99940 -49.93166 39037 ft 523 kts 75°
2026-04-25 16:22 21.01678 -49.85598 39034 ft 523 kts 76°
2026-04-25 16:22 21.03387 -49.78094 39035 ft 523 kts 75°
2026-04-25 16:23 21.05117 -49.70565 39034 ft 522 kts 75°
2026-04-25 16:23 21.06861 -49.63005 39034 ft 523 kts 75°
2026-04-25 16:24 21.08595 -49.55471 39034 ft 523 kts 75°
2026-04-25 16:24 21.10333 -49.47918 39034 ft 524 kts 75°
2026-04-25 16:25 21.11776 -49.41622 39034 ft 524 kts 75°
2026-04-25 16:25 21.13789 -49.32837 39030 ft 523 kts 76°
2026-04-25 16:26 21.15523 -49.25249 39034 ft 524 kts 75°
2026-04-25 16:26 21.17247 -49.17677 39034 ft 523 kts 76°
2026-04-25 16:27 21.18964 -49.10130 38648 ft 524 kts 76°
2026-04-25 16:27 21.19819 -49.06361 38351 ft 524 kts 75°
2026-04-25 16:27 21.20672 -49.02602 38055 ft 524 kts 75°
2026-04-25 16:27 21.21531 -48.98811 37757 ft 524 kts 76°
2026-04-25 16:28 21.22386 -48.95032 37461 ft 524 kts 75°
2026-04-25 16:28 21.23248 -48.91215 37162 ft 524 kts 75°
2026-04-25 16:28 21.24103 -48.87435 37037 ft 524 kts 76°
2026-04-25 16:29 21.25802 -48.79893 37035 ft 525 kts 75°
2026-04-25 16:29 21.27513 -48.72291 37036 ft 525 kts 76°
2026-04-25 16:30 21.29219 -48.64691 37035 ft 525 kts 76°
2026-04-25 16:30 21.30916 -48.57109 37036 ft 525 kts 75°
2026-04-25 16:31 21.32616 -48.49497 37036 ft 525 kts 75°
2026-04-25 16:31 21.34307 -48.41913 37036 ft 525 kts 75°
2026-04-25 16:32 21.35989 -48.34354 37034 ft 524 kts 76°
2026-04-25 16:32 21.37677 -48.26749 37035 ft 525 kts 76°
2026-04-25 16:33 21.39354 -48.19172 37034 ft 519 kts 76°
2026-04-25 16:33 21.41033 -48.11572 37035 ft 526 kts 76°
2026-04-25 16:34 21.42716 -48.03936 37035 ft 527 kts 76°
2026-04-25 16:34 21.44393 -47.96313 37036 ft 527 kts 76°
2026-04-25 16:35 21.46065 -47.88686 37036 ft 527 kts 76°
2026-04-25 16:35 21.47735 -47.81058 37035 ft 527 kts 75°
2026-04-25 16:36 21.49399 -47.73445 37036 ft 527 kts 75°
2026-04-25 16:36 21.51068 -47.65784 37036 ft 527 kts 75°
2026-04-25 16:37 21.52743 -47.58081 37035 ft 527 kts 75°
2026-04-25 16:37 21.54394 -47.50467 37035 ft 527 kts 75°
2026-04-25 16:38 21.56056 -47.42784 37036 ft 527 kts 75°
2026-04-25 16:38 21.57698 -47.35176 37035 ft 527 kts 75°
2026-04-25 16:39 21.59345 -47.27533 37035 ft 527 kts 75°
2026-04-25 16:39 21.61000 -47.19830 37035 ft 527 kts 76°
2026-04-25 16:40 21.62641 -47.12171 37036 ft 527 kts 75°
2026-04-25 16:40 21.64277 -47.04520 37035 ft 528 kts 75°
2026-04-25 16:41 21.65909 -46.96880 37033 ft 528 kts 75°
2026-04-25 16:41 21.68354 -46.85387 37034 ft 527 kts 75°
2026-04-25 16:42 21.69959 -46.77802 37041 ft 516 kts 75°
2026-04-25 16:42 21.71545 -46.70312 37037 ft 515 kts 75°
2026-04-25 16:43 21.73122 -46.62837 37039 ft 515 kts 75°
2026-04-25 16:43 21.74697 -46.55358 37040 ft 515 kts 75°
2026-04-25 16:44 21.76274 -46.47864 37047 ft 515 kts 75°
2026-04-25 16:44 21.77841 -46.40381 37044 ft 514 kts 75°
2026-04-25 16:45 21.79405 -46.32903 37046 ft 513 kts 75°
2026-04-25 16:45 21.80963 -46.25433 37049 ft 513 kts 75°
2026-04-25 16:46 21.82518 -46.17965 37049 ft 514 kts 75°
2026-04-25 16:46 21.83814 -46.11729 37049 ft 514 kts 75°
2026-04-25 16:47 21.85626 -46.02978 37053 ft 514 kts 75°
2026-04-25 16:47 21.87175 -45.95478 37057 ft 514 kts 75°
2026-04-25 16:48 21.88722 -45.87977 37059 ft 514 kts 75°
2026-04-25 16:48 21.90253 -45.80523 37062 ft 514 kts 75°
2026-04-25 16:49 21.91795 -45.73016 37063 ft 514 kts 75°
2026-04-25 16:49 21.93332 -45.65507 37062 ft 514 kts 75°
2026-04-25 16:50 21.94866 -45.57984 37064 ft 514 kts 75°
2026-04-25 16:50 21.96388 -45.50518 37068 ft 515 kts 75°
2026-04-25 16:51 21.97922 -45.42960 37072 ft 515 kts 75°
2026-04-25 16:51 21.99187 -45.36718 37072 ft 515 kts 75°
2026-04-25 16:52 22.00966 -45.27930 37072 ft 516 kts 76°
2026-04-25 16:52 22.02483 -45.20397 37074 ft 516 kts 75°
2026-04-25 16:53 22.04750 -45.09124 37076 ft 515 kts 75°
2026-04-25 16:54 22.06265 -45.01564 37077 ft 515 kts 75°
2026-04-25 16:54 22.07769 -44.94039 37077 ft 515 kts 75°
2026-04-25 16:55 22.09263 -44.86550 37077 ft 515 kts 75°
2026-04-25 16:55 22.10759 -44.79030 37077 ft 515 kts 75°
2026-04-25 16:56 22.12253 -44.71493 37078 ft 515 kts 75°
2026-04-25 16:56 22.13742 -44.63968 37077 ft 515 kts 75°
2026-04-25 16:57 22.15229 -44.56431 37077 ft 515 kts 75°
2026-04-25 16:57 22.16723 -44.48849 37077 ft 515 kts 75°
2026-04-25 16:58 22.18194 -44.41353 37077 ft 515 kts 75°
2026-04-25 16:58 22.19677 -44.33781 37074 ft 515 kts 75°
2026-04-25 16:59 22.21148 -44.26260 37078 ft 515 kts 75°
2026-04-25 16:59 22.22624 -44.18686 37079 ft 515 kts 75°
2026-04-25 17:00 22.24091 -44.11138 37078 ft 516 kts 75°
2026-04-25 17:00 22.25556 -44.03587 37079 ft 516 kts 75°
2026-04-25 17:01 22.27018 -43.96020 37078 ft 516 kts 75°
2026-04-25 17:01 22.28469 -43.88496 37079 ft 516 kts 75°
2026-04-25 17:02 22.29931 -43.80889 37078 ft 515 kts 75°
2026-04-25 17:02 22.31378 -43.73360 37076 ft 516 kts 75°
2026-04-25 17:03 22.32830 -43.65779 37077 ft 516 kts 75°
2026-04-25 17:03 22.34273 -43.58207 37079 ft 515 kts 75°
2026-04-25 17:04 22.35712 -43.50651 37078 ft 515 kts 75°
2026-04-25 17:04 22.37145 -43.43100 37078 ft 515 kts 75°
2026-04-25 17:05 22.38578 -43.35527 37075 ft 515 kts 75°
2026-04-25 17:05 22.40716 -43.24215 37076 ft 515 kts 75°
2026-04-25 17:06 22.42137 -43.16651 37077 ft 515 kts 75°
2026-04-25 17:06 22.43556 -43.09087 37080 ft 515 kts 75°
2026-04-25 17:07 22.44980 -43.01480 37077 ft 516 kts 75°
2026-04-25 17:07 22.46383 -42.93951 37078 ft 515 kts 75°
2026-04-25 17:08 22.47791 -42.86385 37078 ft 515 kts 75°
2026-04-25 17:08 22.49203 -42.78782 37076 ft 515 kts 75°
2026-04-25 17:09 22.50601 -42.71234 37079 ft 515 kts 75°
2026-04-25 17:09 22.52002 -42.63642 37077 ft 515 kts 75°
2026-04-25 17:10 22.53392 -42.56075 37077 ft 515 kts 75°
2026-04-25 17:10 22.54779 -42.48530 37078 ft 515 kts 75°
2026-04-25 17:11 22.56174 -42.40913 37080 ft 515 kts 75°
2026-04-25 17:11 22.57552 -42.33364 37075 ft 515 kts 76°
2026-04-25 17:12 22.58935 -42.25772 37077 ft 515 kts 76°
2026-04-25 17:12 22.60308 -42.18196 37077 ft 514 kts 76°
2026-04-25 17:13 22.61447 -42.11904 37076 ft 514 kts 76°
2026-04-25 17:13 22.63048 -42.03040 37078 ft 514 kts 76°
2026-04-25 17:14 22.64408 -41.95486 37077 ft 515 kts 75°
2026-04-25 17:14 22.65774 -41.87880 37074 ft 515 kts 76°
2026-04-25 17:15 22.67136 -41.80269 37076 ft 516 kts 76°
2026-04-25 17:15 22.68492 -41.72662 37078 ft 516 kts 75°
2026-04-25 17:16 22.69846 -41.65067 37075 ft 516 kts 75°
2026-04-25 17:16 22.71191 -41.57490 37077 ft 517 kts 75°
2026-04-25 17:17 22.72547 -41.49826 37076 ft 517 kts 75°
2026-04-25 17:17 22.73891 -41.42208 37075 ft 517 kts 75°
2026-04-25 17:18 22.75236 -41.34563 37074 ft 517 kts 76°
2026-04-25 17:18 22.76577 -41.26923 37075 ft 518 kts 76°
2026-04-25 17:19 22.77905 -41.19332 37076 ft 518 kts 75°
2026-04-25 17:19 22.79237 -41.11691 37076 ft 518 kts 76°
2026-04-25 17:20 22.80570 -41.04025 37075 ft 518 kts 75°
2026-04-25 17:20 22.81901 -40.96351 37077 ft 519 kts 75°
2026-04-25 17:21 22.83229 -40.88671 37077 ft 519 kts 75°
2026-04-25 17:21 22.84548 -40.81021 37077 ft 519 kts 75°
2026-04-25 17:22 22.85641 -40.74654 37077 ft 519 kts 75°
2026-04-25 17:22 22.87180 -40.65678 37077 ft 520 kts 75°
2026-04-25 17:23 22.88492 -40.58002 37077 ft 519 kts 75°
2026-04-25 17:23 22.89801 -40.50312 37077 ft 519 kts 75°
2026-04-25 17:24 22.91103 -40.42643 37077 ft 519 kts 75°
2026-04-25 17:24 22.92400 -40.34981 37077 ft 520 kts 75°
2026-04-25 17:25 22.93702 -40.27274 37076 ft 520 kts 76°
2026-04-25 17:25 22.94996 -40.19583 37077 ft 521 kts 76°
2026-04-25 17:26 22.96289 -40.11869 37077 ft 522 kts 75°
2026-04-25 17:26 22.97568 -40.04117 37074 ft 524 kts 78°
2026-04-25 17:27 22.97507 -39.96239 37077 ft 531 kts 98°
2026-04-25 17:27 22.96062 -39.89722 37079 ft 531 kts 105°
2026-04-25 17:28 22.93789 -39.80746 37078 ft 530 kts 104°
2026-04-25 17:28 22.91908 -39.73066 37078 ft 530 kts 104°
2026-04-25 17:29 22.90052 -39.65310 37466 ft 533 kts 104°
2026-04-25 17:29 22.89135 -39.61467 37934 ft 530 kts 104°
2026-04-25 17:29 22.88212 -39.57605 38388 ft 528 kts 104°
2026-04-25 17:30 22.87289 -39.53744 38764 ft 527 kts 104°
2026-04-25 17:30 22.86382 -39.49955 39068 ft 528 kts 104°
2026-04-25 17:30 22.84540 -39.42273 39076 ft 527 kts 104°
2026-04-25 17:31 22.82700 -39.34614 39075 ft 527 kts 104°
2026-04-25 17:31 22.80855 -39.26947 39075 ft 527 kts 104°
2026-04-25 17:32 22.79000 -39.19266 39076 ft 527 kts 104°
2026-04-25 17:32 22.77152 -39.11641 39075 ft 526 kts 104°
2026-04-25 17:33 22.75299 -39.03988 39076 ft 527 kts 104°
2026-04-25 17:33 22.73442 -38.96350 39076 ft 526 kts 104°
2026-04-25 17:34 22.71573 -38.88673 39076 ft 526 kts 104°
2026-04-25 17:34 22.69708 -38.81038 39076 ft 527 kts 104°
2026-04-25 17:35 22.67833 -38.73372 39076 ft 526 kts 104°
2026-04-25 17:35 22.65961 -38.65735 39076 ft 526 kts 104°
2026-04-25 17:36 22.64097 -38.58144 39076 ft 526 kts 104°
2026-04-25 17:36 22.62207 -38.50476 39076 ft 526 kts 104°
2026-04-25 17:37 22.60325 -38.42851 39076 ft 527 kts 104°
2026-04-25 17:37 22.58445 -38.35244 39076 ft 526 kts 104°
2026-04-25 17:38 22.56871 -38.28899 39075 ft 526 kts 105°
2026-04-25 17:38 22.54667 -38.20021 39076 ft 527 kts 104°
2026-04-25 17:39 22.52756 -38.12343 39075 ft 528 kts 105°
2026-04-25 17:39 22.50852 -38.04723 39077 ft 527 kts 104°
2026-04-25 17:40 22.48948 -37.97103 39076 ft 527 kts 104°
2026-04-25 17:40 22.47032 -37.89454 39076 ft 528 kts 104°
2026-04-25 17:41 22.45115 -37.81813 39076 ft 528 kts 104°
2026-04-25 17:41 22.43195 -37.74202 39076 ft 527 kts 104°
2026-04-25 17:42 22.41276 -37.66584 39076 ft 527 kts 104°
2026-04-25 17:42 22.39355 -37.58978 39076 ft 528 kts 104°
2026-04-25 17:43 22.37410 -37.51311 39076 ft 528 kts 104°
2026-04-25 17:43 22.35478 -37.43686 39076 ft 529 kts 105°
2026-04-25 17:44 22.33538 -37.36071 39076 ft 529 kts 104°
2026-04-25 17:44 22.31591 -37.28422 39075 ft 529 kts 105°
2026-04-25 17:45 22.29966 -37.22056 39076 ft 529 kts 105°
2026-04-25 17:45 22.27684 -37.13144 39076 ft 530 kts 105°
2026-04-25 17:46 22.25725 -37.05510 39076 ft 530 kts 105°
2026-04-25 17:46 22.23757 -36.97855 39076 ft 530 kts 105°
2026-04-25 17:47 22.21789 -36.90209 39076 ft 530 kts 105°
2026-04-25 17:47 22.19826 -36.82611 39076 ft 529 kts 105°
2026-04-25 17:48 22.16863 -36.71165 39076 ft 530 kts 105°
2026-04-25 17:49 22.14878 -36.63505 39076 ft 529 kts 105°
2026-04-25 17:49 22.12905 -36.55912 39076 ft 529 kts 105°
2026-04-25 17:50 22.10920 -36.48300 39076 ft 529 kts 105°
2026-04-25 17:50 22.08926 -36.40665 39076 ft 530 kts 105°
2026-04-25 17:51 22.06939 -36.33059 39071 ft 529 kts 105°
2026-04-25 17:51 22.04939 -36.25430 39074 ft 529 kts 105°
2026-04-25 17:52 22.02943 -36.17831 39076 ft 529 kts 105°
2026-04-25 17:52 22.00938 -36.10204 39075 ft 529 kts 105°
2026-04-25 17:53 21.98931 -36.02605 39076 ft 529 kts 106°
2026-04-25 17:53 21.96543 -35.95151 39075 ft 528 kts 111°
2026-04-25 17:54 21.93933 -35.87788 39074 ft 528 kts 111°
2026-04-25 17:54 21.91313 -35.80413 39075 ft 528 kts 111°
2026-04-25 17:55 21.88705 -35.73031 39076 ft 528 kts 111°
2026-04-25 17:55 21.86114 -35.65704 39071 ft 528 kts 111°
2026-04-25 17:56 21.83504 -35.58332 39073 ft 528 kts 111°
2026-04-25 17:56 21.80897 -35.50964 39072 ft 528 kts 110°
2026-04-25 17:57 21.78297 -35.43628 39071 ft 528 kts 111°
2026-04-25 17:57 21.75662 -35.36228 39070 ft 528 kts 111°
2026-04-25 17:58 21.73051 -35.28885 39067 ft 527 kts 111°
2026-04-25 17:58 21.70432 -35.21542 39069 ft 527 kts 111°
2026-04-25 17:59 21.67826 -35.14246 39066 ft 527 kts 111°
2026-04-25 17:59 21.65188 -35.06868 39068 ft 527 kts 111°
2026-04-25 18:00 21.62564 -34.99545 39070 ft 527 kts 111°
2026-04-25 18:00 21.59941 -34.92246 39066 ft 527 kts 111°
2026-04-25 18:01 21.57310 -34.84924 39063 ft 528 kts 111°
2026-04-25 18:01 21.54673 -34.77597 39064 ft 527 kts 111°
2026-04-25 18:02 21.52031 -34.70265 39065 ft 527 kts 111°
2026-04-25 18:02 21.49383 -34.62930 39065 ft 527 kts 111°
2026-04-25 18:03 21.46726 -34.55581 39066 ft 526 kts 111°
2026-04-25 18:03 21.44096 -34.48325 39066 ft 526 kts 111°
2026-04-25 18:04 21.41437 -34.40998 39064 ft 526 kts 111°
2026-04-25 18:04 21.38792 -34.33722 39058 ft 526 kts 111°
2026-04-25 18:05 21.36572 -34.27619 39062 ft 526 kts 111°
2026-04-25 18:05 21.33480 -34.19136 39064 ft 525 kts 111°
2026-04-25 18:06 21.30823 -34.11860 39060 ft 525 kts 111°
2026-04-25 18:06 21.28170 -34.04598 39059 ft 525 kts 111°
2026-04-25 18:07 21.25492 -33.97291 39055 ft 525 kts 111°
2026-04-25 18:07 21.22844 -33.90065 39054 ft 525 kts 111°
2026-04-25 18:08 21.20169 -33.82784 39049 ft 525 kts 111°
2026-04-25 18:08 21.17503 -33.75538 39051 ft 525 kts 111°
2026-04-25 18:09 21.14827 -33.68274 39049 ft 525 kts 111°
2026-04-25 18:09 21.12150 -33.61018 39051 ft 525 kts 111°
2026-04-25 18:10 21.09486 -33.53810 39046 ft 525 kts 111°
2026-04-25 18:10 21.06805 -33.46567 39043 ft 524 kts 111°
2026-04-25 18:11 21.04115 -33.39307 39042 ft 524 kts 111°
2026-04-25 18:11 21.01432 -33.32084 39034 ft 524 kts 112°
2026-04-25 18:12 20.98756 -33.24885 39038 ft 524 kts 112°
2026-04-25 18:12 20.96063 -33.17651 39037 ft 523 kts 111°
2026-04-25 18:13 20.93375 -33.10439 39036 ft 523 kts 112°
2026-04-25 18:13 20.90671 -33.03202 39031 ft 523 kts 112°
2026-04-25 18:14 20.86645 -32.92438 39034 ft 523 kts 112°
2026-04-25 18:14 20.83944 -32.85228 39037 ft 523 kts 112°
2026-04-25 18:15 20.81249 -32.78047 39033 ft 522 kts 112°
2026-04-25 18:15 20.78531 -32.70820 39033 ft 522 kts 112°
2026-04-25 18:16 20.75829 -32.63648 39034 ft 522 kts 112°
2026-04-25 18:17 20.71776 -32.52897 39034 ft 522 kts 112°
2026-04-25 18:17 20.69062 -32.45716 39033 ft 522 kts 112°
2026-04-25 18:18 20.66356 -32.38566 39034 ft 522 kts 112°
2026-04-25 18:18 20.63648 -32.31411 39030 ft 521 kts 112°
2026-04-25 18:19 20.60936 -32.24266 39032 ft 521 kts 112°
2026-04-25 18:19 20.58215 -32.17109 39032 ft 521 kts 112°
2026-04-25 18:20 20.55490 -32.09951 39032 ft 521 kts 112°
2026-04-25 18:20 20.52774 -32.02816 39034 ft 520 kts 112°
2026-04-25 18:21 20.50059 -31.95704 39036 ft 520 kts 112°
2026-04-25 18:21 20.47334 -31.88570 39035 ft 520 kts 112°
2026-04-25 18:22 20.44598 -31.81418 39032 ft 520 kts 112°
2026-04-25 18:22 20.41883 -31.74331 39034 ft 520 kts 112°
2026-04-25 18:23 20.38926 -31.67327 39030 ft 519 kts 115°
2026-04-25 18:23 20.35845 -31.60348 39030 ft 519 kts 115°
2026-04-25 18:24 20.32784 -31.53411 39032 ft 519 kts 116°
2026-04-25 18:24 20.29726 -31.46473 39028 ft 519 kts 115°
2026-04-25 18:25 20.26664 -31.39525 39026 ft 519 kts 115°
2026-04-25 18:25 20.23604 -31.32587 39025 ft 519 kts 115°
2026-04-25 18:26 20.20546 -31.25658 39024 ft 518 kts 116°
2026-04-25 18:26 20.17483 -31.18735 39022 ft 518 kts 116°
2026-04-25 18:27 20.14415 -31.11803 39018 ft 518 kts 115°
2026-04-25 18:27 20.11355 -31.04900 39025 ft 518 kts 115°
2026-04-25 18:28 20.08289 -30.97997 39018 ft 518 kts 115°
2026-04-25 18:28 20.05220 -30.91092 39013 ft 518 kts 115°
2026-04-25 18:29 20.00602 -30.80710 39016 ft 518 kts 115°
2026-04-25 18:30 19.94459 -30.66945 39022 ft 517 kts 116°
2026-04-25 18:30 19.91366 -30.60028 39029 ft 517 kts 115°
2026-04-25 18:31 19.88297 -30.53171 39034 ft 517 kts 115°
2026-04-25 18:31 19.85221 -30.46305 39032 ft 516 kts 116°
2026-04-25 18:32 19.82141 -30.39436 39029 ft 516 kts 115°
2026-04-25 18:32 19.79056 -30.32565 39023 ft 515 kts 116°
2026-04-25 18:33 19.75984 -30.25736 39026 ft 515 kts 116°
2026-04-25 18:33 19.72889 -30.18866 39023 ft 514 kts 116°
2026-04-25 18:34 19.69811 -30.12038 39027 ft 514 kts 116°
2026-04-25 18:34 19.66727 -30.05205 39025 ft 514 kts 116°
2026-04-25 18:35 19.63655 -29.98413 39027 ft 513 kts 116°
2026-04-25 18:35 19.60566 -29.91585 39025 ft 513 kts 116°
2026-04-25 18:36 19.57489 -29.84794 39025 ft 513 kts 116°
2026-04-25 18:36 19.54412 -29.78006 39023 ft 513 kts 116°
2026-04-25 18:37 19.51317 -29.71195 39022 ft 512 kts 116°
2026-04-25 18:37 19.48245 -29.64440 39021 ft 512 kts 116°
2026-04-25 18:38 19.45146 -29.57632 39020 ft 512 kts 117°
2026-04-25 18:38 19.42057 -29.50857 39019 ft 511 kts 117°
2026-04-25 18:39 19.38966 -29.44080 39018 ft 511 kts 117°
2026-04-25 18:39 19.35894 -29.37359 39017 ft 511 kts 117°
2026-04-25 18:40 19.32791 -29.30575 39016 ft 510 kts 117°
2026-04-25 18:40 19.29706 -29.23841 39016 ft 510 kts 117°
2026-04-25 18:41 19.26625 -29.17118 39015 ft 508 kts 117°
2026-04-25 18:41 19.23552 -29.10428 39015 ft 508 kts 117°
2026-04-25 18:42 19.20973 -29.04815 39015 ft 508 kts 117°
2026-04-25 18:42 19.17366 -28.96977 39014 ft 508 kts 117°
2026-04-25 18:43 19.14284 -28.90285 39014 ft 508 kts 117°
2026-04-25 18:43 19.11200 -28.83595 39014 ft 508 kts 117°
2026-04-25 18:44 19.08095 -28.76869 39014 ft 507 kts 117°
2026-04-25 18:44 19.05009 -28.70196 39013 ft 507 kts 117°
2026-04-25 18:45 19.01919 -28.63522 39014 ft 507 kts 117°
2026-04-25 18:45 18.98830 -28.56858 39014 ft 507 kts 117°
2026-04-25 18:46 18.95742 -28.50197 39013 ft 507 kts 117°
2026-04-25 18:46 18.92637 -28.43509 39012 ft 506 kts 117°
2026-04-25 18:47 18.89545 -28.36861 39009 ft 506 kts 117°
2026-04-25 18:47 18.86439 -28.30186 39009 ft 505 kts 118°
2026-04-25 18:48 18.83349 -28.23558 39010 ft 505 kts 117°
2026-04-25 18:48 18.80253 -28.16919 39010 ft 505 kts 118°
2026-04-25 18:49 18.77154 -28.10282 39005 ft 505 kts 118°
2026-04-25 18:49 18.74058 -28.03660 39003 ft 504 kts 118°
2026-04-25 18:50 18.70961 -27.97045 39004 ft 504 kts 118°
2026-04-25 18:50 18.67862 -27.90431 39000 ft 504 kts 118°
2026-04-25 18:51 18.65288 -27.84945 39000 ft 504 kts 118°
2026-04-25 18:51 18.61666 -27.77233 38997 ft 505 kts 118°
2026-04-25 18:52 18.58541 -27.70582 38993 ft 504 kts 118°
2026-04-25 18:52 18.55437 -27.63986 38995 ft 505 kts 118°
2026-04-25 18:53 18.52329 -27.57390 38992 ft 504 kts 118°
2026-04-25 18:53 18.49216 -27.50793 38989 ft 503 kts 118°
2026-04-25 18:54 18.44549 -27.40914 38986 ft 503 kts 118°
2026-04-25 18:55 18.41437 -27.34337 38983 ft 503 kts 118°
2026-04-25 18:55 18.38324 -27.27759 38982 ft 503 kts 118°
2026-04-25 18:56 18.35218 -27.21205 38981 ft 502 kts 118°
2026-04-25 18:56 18.32102 -27.14639 38980 ft 502 kts 118°
2026-04-25 18:57 18.28988 -27.08084 38979 ft 502 kts 118°
2026-04-25 18:57 18.25873 -27.01534 38979 ft 502 kts 118°
2026-04-25 18:58 18.22750 -26.94975 38978 ft 502 kts 118°
2026-04-25 18:58 18.18066 -26.85150 38977 ft 501 kts 118°
2026-04-25 18:59 18.11835 -26.72103 38975 ft 500 kts 118°
2026-04-25 19:00 18.07167 -26.62349 38973 ft 499 kts 118°
2026-04-25 19:01 18.02474 -26.52553 38974 ft 500 kts 118°
2026-04-25 19:01 17.99365 -26.46072 38972 ft 498 kts 118°
2026-04-25 19:02 17.94676 -26.36315 38971 ft 499 kts 118°
2026-04-25 19:03 17.90528 -26.27691 38970 ft 499 kts 119°
2026-04-25 19:03 17.86875 -26.20106 38973 ft 500 kts 119°
2026-04-25 19:04 17.82186 -26.10380 38973 ft 499 kts 118°
2026-04-25 19:05 17.75797 -25.97461 38976 ft 498 kts 121°
2026-04-25 19:06 17.72454 -25.91101 38972 ft 498 kts 121°
2026-04-25 19:06 17.67477 -25.81594 38975 ft 497 kts 121°
2026-04-25 19:07 17.62517 -25.72090 38973 ft 496 kts 121°
2026-04-25 19:08 17.57563 -25.62603 38970 ft 495 kts 121°
2026-04-25 19:09 17.51476 -25.50973 38966 ft 496 kts 121°
2026-04-25 19:10 17.45972 -25.40471 38966 ft 496 kts 121°
2026-04-25 19:10 17.42642 -25.34124 38961 ft 496 kts 121°
2026-04-25 19:11 17.39334 -25.27824 38958 ft 496 kts 121°
2026-04-25 19:11 17.36006 -25.21497 38957 ft 496 kts 121°
2026-04-25 19:12 17.32682 -25.15180 38957 ft 496 kts 121°
2026-04-25 19:12 17.29373 -25.08900 38953 ft 495 kts 121°
2026-04-25 19:13 17.26059 -25.02612 38953 ft 494 kts 121°
2026-04-25 19:13 17.22742 -24.96328 38957 ft 494 kts 121°
2026-04-25 19:14 17.19427 -24.90055 38953 ft 494 kts 121°
2026-04-25 19:14 17.16112 -24.83787 38954 ft 495 kts 121°
2026-04-25 19:15 17.12787 -24.77503 38952 ft 494 kts 121°
2026-04-25 19:15 17.09452 -24.71209 38954 ft 494 kts 121°
2026-04-25 19:16 17.06133 -24.64946 38952 ft 494 kts 121°
2026-04-25 19:16 17.02793 -24.58655 38951 ft 494 kts 121°
2026-04-25 19:17 16.99461 -24.52383 38952 ft 495 kts 121°
2026-04-25 19:17 16.96145 -24.46147 38952 ft 495 kts 121°
2026-04-25 19:18 16.92785 -24.39835 38952 ft 495 kts 121°
2026-04-25 19:18 16.89458 -24.33589 38948 ft 495 kts 121°
2026-04-25 19:19 16.86112 -24.27312 38951 ft 494 kts 121°
2026-04-25 19:19 16.82772 -24.21056 38951 ft 494 kts 121°
2026-04-25 19:20 16.79433 -24.14803 38949 ft 494 kts 121°
2026-04-25 19:20 16.76100 -24.08570 38949 ft 494 kts 121°
2026-04-25 19:21 16.72751 -24.02311 38949 ft 494 kts 121°
2026-04-25 19:21 16.67726 -23.92936 38952 ft 494 kts 121°
2026-04-25 19:22 16.64378 -23.86693 38951 ft 493 kts 121°
2026-04-25 19:23 16.59375 -23.77375 38949 ft 493 kts 121°
2026-04-25 19:23 16.54367 -23.68063 38946 ft 493 kts 121°
2026-04-25 19:24 16.51013 -23.61832 38944 ft 492 kts 121°
2026-04-25 19:25 16.44331 -23.49435 38940 ft 492 kts 121°
2026-04-25 19:25 16.40973 -23.43212 38939 ft 492 kts 121°
2026-04-25 19:26 16.37632 -23.37032 38932 ft 492 kts 121°
2026-04-25 19:26 16.34288 -23.30847 38933 ft 492 kts 122°
2026-04-25 19:27 16.31487 -23.25668 38933 ft 492 kts 122°
2026-04-25 19:27 16.27576 -23.18445 38934 ft 491 kts 122°
2026-04-25 19:28 16.24226 -23.12266 38935 ft 491 kts 122°
2026-04-25 19:28 16.20871 -23.06079 38933 ft 491 kts 122°
2026-04-25 19:29 16.17536 -22.99937 38930 ft 491 kts 121°
2026-04-25 19:29 16.14185 -22.93762 38923 ft 491 kts 122°
2026-04-25 19:30 16.10823 -22.87563 38915 ft 491 kts 121°
2026-04-25 19:30 16.07527 -22.81365 38917 ft 492 kts 121°
2026-04-25 19:31 16.04244 -22.75174 38930 ft 491 kts 121°
2026-04-25 19:31 16.00941 -22.68952 38926 ft 490 kts 121°
2026-04-25 19:32 15.97655 -22.62778 38931 ft 490 kts 121°
2026-04-25 19:32 15.94900 -22.57606 38930 ft 491 kts 121°
2026-04-25 19:33 15.91065 -22.50411 38933 ft 490 kts 121°
2026-04-25 19:33 15.87750 -22.44201 38934 ft 490 kts 121°
2026-04-25 19:34 15.84470 -22.38054 38934 ft 490 kts 121°
2026-04-25 19:34 15.81158 -22.31856 38930 ft 489 kts 121°
2026-04-25 19:35 15.77864 -22.25699 38930 ft 489 kts 121°
2026-04-25 19:35 15.74565 -22.19536 38930 ft 489 kts 121°
2026-04-25 19:36 15.71284 -22.13412 38926 ft 488 kts 121°
2026-04-25 19:36 15.67974 -22.07239 38924 ft 489 kts 121°
2026-04-25 19:37 15.64684 -22.01110 38918 ft 489 kts 121°
2026-04-25 19:37 15.61379 -21.94958 38913 ft 489 kts 121°
2026-04-25 19:38 15.58071 -21.88805 38914 ft 489 kts 121°
2026-04-25 19:38 15.54757 -21.82645 38917 ft 488 kts 121°
2026-04-25 19:39 15.51453 -21.76509 38913 ft 488 kts 121°
2026-04-25 19:39 15.48150 -21.70378 38909 ft 488 kts 121°
2026-04-25 19:40 15.44845 -21.64251 38907 ft 487 kts 121°
2026-04-25 19:40 15.41556 -21.58158 38906 ft 487 kts 121°
2026-04-25 19:41 15.38255 -21.52052 38904 ft 487 kts 121°
2026-04-25 19:41 15.35483 -21.46924 38904 ft 486 kts 121°
2026-04-25 19:42 15.31635 -21.39813 38903 ft 487 kts 121°
2026-04-25 19:42 15.28325 -21.33703 38897 ft 486 kts 121°
2026-04-25 19:43 15.25044 -21.27645 38900 ft 486 kts 121°
2026-04-25 19:43 15.21739 -21.21553 38901 ft 486 kts 121°
2026-04-25 19:44 15.18435 -21.15469 38899 ft 486 kts 121°
2026-04-25 19:44 15.15125 -21.09382 38895 ft 485 kts 121°
2026-04-25 19:45 15.11824 -21.03306 38899 ft 486 kts 121°
2026-04-25 19:45 15.08511 -20.97218 38908 ft 486 kts 121°
2026-04-25 19:46 15.05186 -20.91116 38908 ft 487 kts 121°
2026-04-25 19:46 15.01881 -20.85053 38904 ft 486 kts 121°
2026-04-25 19:47 14.98563 -20.78968 38901 ft 485 kts 121°
2026-04-25 19:47 14.95262 -20.72922 38897 ft 484 kts 121°
2026-04-25 19:48 14.91951 -20.66861 38896 ft 484 kts 121°
2026-04-25 19:48 14.88639 -20.60805 38896 ft 483 kts 121°
2026-04-25 19:49 14.85901 -20.55798 38892 ft 483 kts 121°
2026-04-25 19:49 14.82029 -20.48725 38891 ft 483 kts 121°
2026-04-25 19:50 14.77087 -20.39707 38882 ft 482 kts 121°
2026-04-25 19:51 14.74002 -20.33565 38879 ft 484 kts 114°
2026-04-25 19:51 14.71613 -20.27092 38885 ft 483 kts 113°
2026-04-25 19:52 14.68924 -20.20756 38889 ft 482 kts 114°
2026-04-25 19:52 14.66571 -20.14275 38891 ft 483 kts 109°
2026-04-25 19:53 14.64472 -20.07692 38890 ft 483 kts 109°
2026-04-25 19:53 14.62384 -20.01126 38889 ft 482 kts 109°
2026-04-25 19:54 14.60296 -19.94603 38887 ft 482 kts 109°
2026-04-25 19:54 14.58191 -19.88043 38886 ft 483 kts 109°
2026-04-25 19:55 14.56069 -19.81444 38886 ft 482 kts 109°
2026-04-25 19:55 14.53959 -19.74889 38885 ft 483 kts 109°
2026-04-25 19:56 14.51854 -19.68352 38883 ft 483 kts 109°
2026-04-25 19:56 14.49737 -19.61787 38883 ft 483 kts 109°
2026-04-25 19:57 14.47615 -19.55215 38880 ft 482 kts 109°
2026-04-25 19:57 14.45501 -19.48675 38881 ft 483 kts 109°
2026-04-25 19:58 14.43378 -19.42115 38879 ft 483 kts 109°
2026-04-25 19:58 14.41262 -19.35582 38876 ft 483 kts 109°
2026-04-25 19:59 14.39132 -19.29012 38875 ft 483 kts 109°
2026-04-25 19:59 14.37006 -19.22459 38876 ft 482 kts 109°
2026-04-25 20:00 14.34880 -19.15915 38873 ft 482 kts 109°
2026-04-25 20:00 14.32754 -19.09381 38871 ft 482 kts 109°
2026-04-25 20:01 14.29559 -18.99570 38869 ft 482 kts 109°
2026-04-25 20:01 14.27429 -18.93039 38867 ft 482 kts 109°
2026-04-25 20:02 14.25302 -18.86519 38865 ft 482 kts 109°
2026-04-25 20:02 14.23171 -18.79996 38865 ft 482 kts 109°
2026-04-25 20:03 14.21026 -18.73437 38864 ft 482 kts 109°
2026-04-25 20:03 14.18894 -18.66924 38863 ft 482 kts 109°
2026-04-25 20:04 14.16755 -18.60400 38861 ft 482 kts 109°
2026-04-25 20:04 14.15686 -18.57139 38750 ft 483 kts 109°
2026-04-25 20:04 14.14600 -18.53833 38432 ft 481 kts 108°
2026-04-25 20:05 14.13540 -18.50606 38132 ft 479 kts 108°
2026-04-25 20:05 14.12476 -18.47367 37831 ft 476 kts 108°
2026-04-25 20:05 14.11427 -18.44175 37521 ft 474 kts 108°
2026-04-25 20:05 14.10366 -18.40945 37070 ft 474 kts 108°
2026-04-25 20:06 14.09319 -18.37764 36452 ft 475 kts 108°
2026-04-25 20:06 14.08263 -18.34552 35711 ft 475 kts 108°
2026-04-25 20:06 14.07205 -18.31340 34943 ft 475 kts 108°
2026-04-25 20:06 14.06139 -18.28107 34158 ft 476 kts 108°
2026-04-25 20:07 14.05078 -18.24888 33359 ft 477 kts 107°
2026-04-25 20:07 14.04012 -18.21653 32707 ft 477 kts 107°
2026-04-25 20:07 14.02958 -18.18455 32260 ft 477 kts 107°
2026-04-25 20:07 14.01892 -18.15223 31769 ft 473 kts 107°
2026-04-25 20:08 14.00842 -18.12036 31271 ft 469 kts 107°
2026-04-25 20:08 13.99797 -18.08865 30758 ft 465 kts 107°
2026-04-25 20:08 13.98774 -18.05769 30255 ft 461 kts 107°
2026-04-25 20:08 13.98064 -18.02594 29715 ft 452 kts 92°
2026-04-25 20:09 13.98276 -17.99416 29216 ft 439 kts 73°
2026-04-25 20:09 13.99335 -17.96548 28705 ft 426 kts 57°
2026-04-25 20:09 14.01002 -17.94078 28231 ft 416 kts 48°
2026-04-25 20:09 14.02775 -17.91727 27760 ft 412 kts 48°
2026-04-25 20:10 14.04509 -17.89438 27280 ft 408 kts 48°
2026-04-25 20:10 14.06238 -17.87133 26782 ft 406 kts 49°
2026-04-25 20:10 14.07942 -17.84840 26275 ft 403 kts 49°
2026-04-25 20:10 14.09633 -17.82548 25776 ft 400 kts 50°
2026-04-25 20:11 14.11304 -17.80272 25270 ft 398 kts 50°
2026-04-25 20:11 14.12967 -17.78003 24768 ft 395 kts 50°
2026-04-25 20:11 14.14611 -17.75756 24263 ft 393 kts 51°
2026-04-25 20:11 14.16250 -17.73513 23760 ft 391 kts 51°
2026-04-25 20:12 14.17883 -17.71276 23270 ft 388 kts 51°
2026-04-25 20:12 14.19487 -17.69078 22779 ft 387 kts 51°
2026-04-25 20:12 14.21106 -17.66859 22276 ft 385 kts 52°
2026-04-25 20:12 14.22166 -17.65406 21950 ft 384 kts 52°
2026-04-25 20:13 14.24295 -17.62480 21287 ft 382 kts 51°
2026-04-25 20:13 14.25892 -17.60284 20781 ft 380 kts 51°
2026-04-25 20:13 14.27463 -17.58127 20282 ft 379 kts 51°
2026-04-25 20:13 14.29039 -17.55962 19783 ft 377 kts 51°
2026-04-25 20:14 14.30599 -17.53819 19279 ft 376 kts 51°
2026-04-25 20:14 14.32159 -17.51676 18767 ft 374 kts 51°
2026-04-25 20:14 14.33734 -17.49512 18248 ft 373 kts 51°
2026-04-25 20:14 14.35269 -17.47402 17731 ft 371 kts 51°
2026-04-25 20:15 14.36826 -17.45262 17215 ft 370 kts 51°
2026-04-25 20:15 14.38363 -17.43153 16704 ft 368 kts 51°
2026-04-25 20:15 14.39886 -17.41062 16199 ft 363 kts 51°
2026-04-25 20:15 14.41390 -17.38993 15707 ft 359 kts 52°
2026-04-25 20:16 14.42870 -17.36956 15225 ft 351 kts 52°
2026-04-25 20:16 14.44323 -17.34954 14746 ft 346 kts 52°
2026-04-25 20:16 14.45676 -17.32918 14273 ft 345 kts 63°
2026-04-25 20:16 14.46340 -17.30570 13803 ft 342 kts 85°
2026-04-25 20:17 14.46108 -17.28200 13325 ft 336 kts 108°
2026-04-25 20:17 14.45012 -17.26095 12852 ft 329 kts 131°
2026-04-25 20:17 14.43278 -17.24645 12329 ft 324 kts 154°
2026-04-25 20:17 14.41131 -17.23972 11950 ft 318 kts 171°
2026-04-25 20:18 14.38933 -17.23643 11844 ft 317 kts 173°
2026-04-25 20:18 14.36746 -17.23363 11843 ft 318 kts 174°
2026-04-25 20:18 14.34535 -17.23091 11841 ft 318 kts 174°
2026-04-25 20:18 14.32353 -17.22826 11834 ft 307 kts 174°
2026-04-25 20:19 14.30275 -17.22575 11826 ft 289 kts 174°
2026-04-25 20:19 14.28333 -17.22335 11826 ft 276 kts 174°
2026-04-25 20:19 14.26417 -17.22098 11830 ft 275 kts 174°
2026-04-25 20:19 14.24520 -17.21862 11832 ft 275 kts 174°
2026-04-25 20:20 14.22609 -17.21623 11833 ft 275 kts 174°
2026-04-25 20:20 14.20709 -17.21385 11833 ft 275 kts 174°
2026-04-25 20:20 14.18791 -17.21144 11833 ft 276 kts 174°
2026-04-25 20:20 14.16884 -17.20904 11831 ft 276 kts 174°
2026-04-25 20:21 14.14960 -17.20665 11832 ft 276 kts 174°
2026-04-25 20:21 14.13047 -17.20429 11831 ft 275 kts 174°
2026-04-25 20:21 14.11161 -17.20200 11831 ft 275 kts 174°
2026-04-25 20:21 14.09237 -17.19969 11829 ft 275 kts 174°
2026-04-25 20:22 14.07334 -17.19745 11828 ft 275 kts 174°
2026-04-25 20:22 14.06072 -17.19597 11827 ft 276 kts 174°
2026-04-25 20:22 14.03518 -17.19293 11833 ft 276 kts 174°
2026-04-25 20:22 14.01611 -17.19061 11836 ft 276 kts 174°
2026-04-25 20:23 13.99699 -17.18828 11839 ft 276 kts 174°
2026-04-25 20:23 13.97768 -17.18589 11836 ft 276 kts 174°
2026-04-25 20:23 13.95855 -17.18351 11839 ft 276 kts 174°
2026-04-25 20:23 13.93947 -17.18084 11834 ft 277 kts 168°
2026-04-25 20:24 13.92201 -17.17247 11827 ft 279 kts 142°
2026-04-25 20:24 13.91009 -17.15689 11830 ft 281 kts 115°
2026-04-25 20:24 13.90547 -17.13751 11834 ft 282 kts 97°
2026-04-25 20:24 13.90376 -17.11739 11828 ft 282 kts 95°
2026-04-25 20:25 13.90261 -17.09725 11822 ft 282 kts 92°
2026-04-25 20:25 13.90570 -17.07738 11629 ft 286 kts 66°
2026-04-25 20:25 13.91822 -17.06177 11150 ft 288 kts 34°
2026-04-25 20:25 13.93705 -17.05541 10680 ft 287 kts
2026-04-25 20:26 13.95686 -17.05736 10288 ft 282 kts 351°
2026-04-25 20:26 13.97613 -17.06056 9930 ft 280 kts 352°
2026-04-25 20:26 13.99530 -17.06300 9571 ft 277 kts 354°
2026-04-25 20:26 14.01444 -17.06461 9211 ft 274 kts 357°
2026-04-25 20:27 14.03343 -17.06560 8848 ft 271 kts 358°
2026-04-25 20:27 14.05221 -17.06620 8489 ft 268 kts 359°
2026-04-25 20:27 14.07078 -17.06662 8187 ft 264 kts 359°
2026-04-25 20:27 14.08913 -17.06692 7897 ft 261 kts 359°
2026-04-25 20:28 14.10746 -17.06718 7604 ft 260 kts 359°
2026-04-25 20:28 14.12539 -17.06739 7317 ft 259 kts 359°
2026-04-25 20:28 14.14362 -17.06759 7024 ft 258 kts 360°
2026-04-25 20:28 14.16157 -17.06778 6734 ft 256 kts 360°
2026-04-25 20:29 14.17928 -17.06795 6439 ft 254 kts 360°
2026-04-25 20:29 14.19701 -17.06812 6134 ft 253 kts 360°
2026-04-25 20:29 14.21442 -17.06829 5855 ft 251 kts 360°
2026-04-25 20:29 14.23204 -17.06846 5654 ft 250 kts 360°
2026-04-25 20:30 14.24356 -17.06861 5544 ft 250 kts 360°
2026-04-25 20:30 14.26668 -17.06892 5321 ft 248 kts 360°
2026-04-25 20:30 14.28413 -17.06914 5152 ft 247 kts 360°
2026-04-25 20:30 14.30125 -17.06934 4989 ft 246 kts 360°
2026-04-25 20:31 14.31839 -17.06952 4818 ft 245 kts 360°
2026-04-25 20:31 14.33544 -17.06969 4626 ft 244 kts 360°
2026-04-25 20:31 14.35255 -17.06985 4461 ft 243 kts
2026-04-25 20:31 14.36927 -17.07000 4420 ft 242 kts 360°
2026-04-25 20:32 14.38621 -17.07016 4370 ft 242 kts
2026-04-25 20:32 14.40310 -17.07031 4281 ft 238 kts
2026-04-25 20:32 14.41947 -17.07045 4012 ft 233 kts
2026-04-25 20:32 14.43555 -17.07060 3683 ft 227 kts
2026-04-25 20:33 14.45100 -17.07075 3542 ft 212 kts
2026-04-25 20:33 14.46550 -17.07089 3685 ft 205 kts
2026-04-25 20:33 14.47980 -17.07102 3590 ft 204 kts
2026-04-25 20:33 14.48915 -17.07111 3466 ft 204 kts
2026-04-25 20:34 14.50807 -17.07129 3111 ft 202 kts
2026-04-25 20:34 14.52207 -17.07143 2848 ft 199 kts
2026-04-25 20:34 14.53564 -17.07156 2581 ft 189 kts
2026-04-25 20:34 14.54824 -17.07168 2370 ft 174 kts
2026-04-25 20:35 14.56031 -17.07179 2141 ft 171 kts
2026-04-25 20:35 14.57221 -17.07189 1900 ft 163 kts
2026-04-25 20:35 14.58313 -17.07200 1676 ft 150 kts 360°
2026-04-25 20:35 14.59312 -17.07208 1475 ft 138 kts 360°
2026-04-25 20:36 14.60247 -17.07219 1235 ft 130 kts 359°
2026-04-25 20:36 14.61133 -17.07226 1018 ft 121 kts 360°
2026-04-25 20:36 14.61965 -17.07229 907 ft 119 kts 359°
2026-04-25 20:36 14.62798 -17.07233 795 ft 119 kts 358°
2026-04-25 20:37 14.63624 -17.07246 680 ft 119 kts 357°
2026-04-25 20:37 14.64458 -17.07258 528 ft 118 kts 358°
2026-04-25 20:37 14.65267 -17.07256 401 ft 116 kts 354°
2026-04-25 20:37 14.66081 -17.07272 310 ft 114 kts 356°
2026-04-25 20:38 14.66780 -17.07281 303 ft 78 kts 359°
2026-04-25 20:38 14.67184 -17.07284 302 ft 47 kts 359°
2026-04-25 20:38 14.67490 -17.07285 297 ft 34 kts
2026-04-25 20:38 14.67719 -17.07239 289 ft 28 kts 26°
2026-04-25 20:39 14.67812 -17.07185 285 ft 12 kts 33°
2026-04-25 20:39 14.67837 -17.07151 284 ft 6 kts 76°
2026-04-25 20:39 14.67815 -17.07105 284 ft 8 kts 153°
2026-04-25 20:39 14.67777 -17.07098 285 ft 8 kts 177°
2026-04-25 20:40 14.67703 -17.07095 288 ft 8 kts 179°
2026-04-25 20:40 14.67631 -17.07095 290 ft 12 kts 180°
2026-04-25 20:40 14.67543 -17.07074 292 ft 13 kts 124°
2026-04-25 20:40 14.67512 -17.06989 291 ft 13 kts 147°
2026-04-25 20:41 14.67417 -17.06981 292 ft 13 kts 180°
2026-04-25 20:41 14.67324 -17.06980 294 ft 13 kts 179°
2026-04-25 20:41 14.67240 -17.06979 296 ft 8 kts 180°
2026-04-25 20:41 14.67190 -17.06950 296 ft 9 kts 124°
2026-04-25 20:42 14.67150 -17.06886 295 ft 8 kts 122°
2026-04-25 20:42 14.67132 -17.06856 295 ft 2 kts 123°
2026-04-25 20:42 14.67129 -17.06851 295 ft 0 kts 123°